Boston, MA

2:46 AM EDT on May 24, 2018 (GMT -0400)
Logan International

Weather History for KBOS - November, 2011

Change the Weather History Date:

Monday, November 28, 2011

  Actual Average Record
Temperature  
Mean Temperature 60 °F 41 °F  
Max Temperature 67 °F 47 °F 74 °F (1990)
Min Temperature 53 °F 34 °F 11 °F (1873)
Degree Days  
Heating Degree Days 5 24  
Month to date heating degree days 413 560  
Since 1 July heating degree days 708 1007  
Cooling Degree Days 0 0  
Month to date cooling degree days 0 0  
Year to date cooling degree days 1007 747  
Growing Degree Days 10 (Base 50)    
Moisture  
Dew Point 49 °F    
Average Humidity 71    
Maximum Humidity 89    
Minimum Humidity 52    
Precipitation  
Precipitation 0.00 in 0.14 in 1.98 in (1937)
Month to date precipitation 3.45 3.71  
Year to date precipitation 47.67 39.71  
Sea Level Pressure  
Sea Level Pressure 30.10 in    
Wind  
Wind Speed 13 mph (SW)    
Max Wind Speed 22 mph    
Max Gust Speed 28 mph    
Visibility 10 miles    
Events      
T = Trace of Precipitation, MM = Missing Value Source: NWS Daily Summary

Daily Weather History Graph

Daily Weather History Graph

Search for Another Location

Airport or City:

Astronomy

Nov. 28, 2011 Rise Set
Actual Time 6:49 AM EST 4:13 PM EST
Civil Twilight 6:18 AM EST 4:44 PM EST
Nautical Twilight 5:44 AM EST 5:19 PM EST
Astronomical Twilight 5:10 AM EST 5:53 PM EST
Moon 9:56 AM EST (11/28) 7:57 PM EST (11/28)
Length of Visible Light 10h 25m
Length of Day
9h 23m
Waxing Crescent, 15% of the Moon is Illuminated
Nov 28
Waxing Crescent
Dec 2
First Quarter
Dec 10
Full
Dec 17
Last Quarter
Dec 24
New

Hourly Weather History & Observations

Time (EST) Temp. Dew Point Humidity Pressure Visibility Wind Dir Wind Speed Gust Speed Precip Events Conditions
12:54 AM 53.1 °F 48.9 °F 86% 30.09 in 10.0 mi SSW 11.5 mph - N/A   Overcast
1:54 AM 54.0 °F 48.9 °F 83% 30.11 in 10.0 mi SSW 11.5 mph - N/A   Overcast
2:54 AM 54.0 °F 48.9 °F 83% 30.09 in 10.0 mi SSW 9.2 mph - N/A   Overcast
3:54 AM 55.0 °F 48.9 °F 80% 30.07 in 10.0 mi SSW 9.2 mph - N/A   Overcast
4:54 AM 57.0 °F 48.9 °F 74% 30.07 in 10.0 mi SW 16.1 mph - N/A   Overcast
5:54 AM 57.9 °F 48.9 °F 72% 30.09 in 10.0 mi SW 16.1 mph - N/A   Scattered Clouds
6:54 AM 57.0 °F 48.9 °F 74% 30.09 in 10.0 mi SW 15.0 mph - N/A   Mostly Cloudy
7:54 AM 59.0 °F 50.0 °F 72% 30.10 in 10.0 mi SW 18.4 mph 25.3 mph N/A   Overcast
8:54 AM 60.1 °F 51.1 °F 72% 30.12 in 10.0 mi SW 18.4 mph 24.2 mph N/A   Overcast
9:54 AM 62.1 °F 51.1 °F 67% 30.12 in 10.0 mi SW 17.3 mph 25.3 mph N/A   Mostly Cloudy
10:54 AM 63.0 °F 51.1 °F 65% 30.10 in 10.0 mi SW 17.3 mph 23.0 mph N/A   Mostly Cloudy
11:54 AM 64.0 °F 50.0 °F 60% 30.09 in 10.0 mi SW 16.1 mph 24.2 mph N/A   Mostly Cloudy
12:54 PM 66.0 °F 50.0 °F 56% 30.08 in 10.0 mi SW 15.0 mph 23.0 mph N/A   Mostly Cloudy
1:54 PM 66.0 °F 48.9 °F 54% 30.07 in 10.0 mi SW 13.8 mph 23.0 mph N/A   Overcast
2:54 PM 64.9 °F 48.9 °F 56% 30.07 in 10.0 mi SW 15.0 mph - N/A   Overcast
3:54 PM 64.0 °F 48.9 °F 58% 30.09 in 10.0 mi SW 11.5 mph - N/A   Overcast
4:54 PM 62.1 °F 48.9 °F 62% 30.09 in 10.0 mi SSW 11.5 mph - N/A   Overcast
5:54 PM 62.1 °F 48.9 °F 62% 30.10 in 10.0 mi SW 15.0 mph - N/A   Overcast
6:54 PM 60.1 °F 50.0 °F 69% 30.11 in 10.0 mi SW 12.7 mph - N/A   Scattered Clouds
7:54 PM 60.1 °F 50.0 °F 69% 30.12 in 10.0 mi WSW 8.1 mph - N/A   Scattered Clouds
8:54 PM 59.0 °F 50.0 °F 72% 30.12 in 10.0 mi SW 11.5 mph - N/A   Mostly Cloudy
9:54 PM 57.9 °F 50.0 °F 75% 30.13 in 10.0 mi WSW 6.9 mph - N/A   Mostly Cloudy
10:54 PM 55.0 °F 48.9 °F 80% 30.13 in 10.0 mi SSE 4.6 mph - N/A   Mostly Cloudy
11:54 PM 53.1 °F 48.9 °F 86% 30.12 in 10.0 mi SSE 5.8 mph - N/A   Mostly Cloudy